Tucson, AZ

3:48 PM MST on December 10, 2016 (GMT -0700)
Tucson International

Weather History for KTUS - July, 2012

Change the Weather History Date:

Wednesday, July 18, 2012

  Actual Average Record
Temperature  
Mean Temperature 85 °F 87 °F  
Max Temperature 100 °F 99 °F 109 °F (1989)
Min Temperature 70 °F 75 °F 60 °F (1913)
Degree Days  
Heating Degree Days 0 0  
Month to date heating degree days 0 0  
Since 1 June heating degree days 0 0  
Since 1 July heating degree days 0 0  
Cooling Degree Days 20 22  
Month to date cooling degree days 389 408  
Year to date cooling degree days 1758 1504  
Since 1 June cooling degree days 1081 1002  
Growing Degree Days 34 (Base 50)    
Moisture  
Dew Point 48 °F    
Average Humidity 38    
Maximum Humidity 61    
Minimum Humidity 15    
Precipitation  
Precipitation 0.00 in 0.09 in 0.97 in (1919)
Month to date precipitation 3.51 1.07  
Year to date precipitation 4.53 4.34  
Snow  
Snow 0.00 in - - ()
Month to date snowfall 0.0  
Snow Depth 0.00 in    
Sea Level Pressure  
Sea Level Pressure 29.84 in    
Wind  
Wind Speed 5 mph (WNW)    
Max Wind Speed 16 mph    
Max Gust Speed 28 mph    
Visibility 10 miles    
Events      
T = Trace of Precipitation, MM = Missing Value Source: NWS Daily Summary

Daily Weather History Graph

Daily Weather History Graph

Search for Another Location

Airport or City:

Trip Planner

Search our weather history database for the weather conditions in past years. The results will help you decide how hot, cold, wet, or windy it might be!

Date:

Astronomy

Jul. 18, 2012 Rise Set
Actual Time 5:30 AM MST 7:29 PM MST
Civil Twilight 5:02 AM MST 7:57 PM MST
Nautical Twilight 4:29 AM MST 8:30 PM MST
Astronomical Twilight 3:53 AM MST 9:05 PM MST
Moon 5:05 AM MST (7/18) 7:05 PM MST (7/18)
Length of Visible Light 14h 54m
Length of Day
13h 59m
Waning Crescent, 0% of the Moon is Illuminated
Jul 18
Waning Crescent
Jul 18
New
Jul 26
First Quarter
Aug 1
Full
Aug 9
Last Quarter

Hourly Weather History & Observations

Time (MST) Temp. Heat Index Dew Point Humidity Pressure Visibility Wind Dir Wind Speed Gust Speed Precip Events Conditions
12:53 AM 79.0 °F - 48.9 °F 35% 29.84 in 10.0 mi Calm Calm - N/A   Clear
1:53 AM 77.0 °F - 52.0 °F 42% 29.84 in 10.0 mi SSW 3.5 mph - N/A   Clear
2:53 AM 73.9 °F - 55.0 °F 52% 29.84 in 10.0 mi SSW 4.6 mph - N/A   Clear
3:53 AM 73.0 °F - 57.9 °F 59% 29.84 in 10.0 mi SSW 5.8 mph - N/A   Clear
4:53 AM 72.0 °F - 57.9 °F 61% 29.86 in 10.0 mi SE 4.6 mph - N/A   Clear
5:53 AM 71.1 °F - 57.9 °F 63% 29.87 in 10.0 mi SSE 5.8 mph - N/A   Clear
6:53 AM 73.0 °F - 57.9 °F 59% 29.88 in 10.0 mi Calm Calm - N/A   Clear
7:53 AM 80.1 °F 80.2 °F 55.9 °F 43% 29.89 in 10.0 mi ESE 3.5 mph - N/A   Clear
8:53 AM 82.9 °F - 52.0 °F 34% 29.90 in 10.0 mi Calm Calm - N/A   Clear
9:53 AM 86.0 °F - 51.1 °F 30% 29.90 in 10.0 mi WNW 3.5 mph - N/A   Clear
10:53 AM 91.0 °F - 43.0 °F 19% 29.88 in 10.0 mi Calm Calm - N/A   Clear
11:53 AM 93.2 °F - 42.8 °F 17% 30.02 in 10.0 mi WNW 3.5 mph - N/A   Clear
12:53 PM 96.1 °F - 42.1 °F 15% 29.84 in 10.0 mi NNW 9.2 mph - N/A   Clear
1:53 PM 98.1 °F - 44.1 °F 16% 29.81 in 10.0 mi NNW 9.2 mph - N/A   Clear
2:53 PM 98.1 °F - 43.0 °F 15% 29.80 in 10.0 mi NNW 6.9 mph 16.1 mph N/A   Clear
3:53 PM 97.0 °F - 42.1 °F 15% 29.78 in 10.0 mi NW 9.2 mph - N/A   Clear
4:53 PM 97.0 °F - 41.0 °F 14% 29.77 in 10.0 mi NW 8.1 mph - N/A   Clear
5:53 PM 97.0 °F - 41.0 °F 14% 29.77 in 10.0 mi North 10.4 mph - N/A   Clear
6:53 PM 93.9 °F - 41.0 °F 16% 29.79 in 10.0 mi NNW 10.4 mph - N/A   Clear
7:53 PM 91.9 °F - 43.0 °F 18% 29.78 in 10.0 mi NNW 5.8 mph - N/A   Clear
8:53 PM 90.0 °F - 44.1 °F 20% 29.80 in 10.0 mi NW 5.8 mph - N/A   Clear
9:53 PM 89.1 °F - 43.0 °F 20% 29.82 in 10.0 mi NNW 4.6 mph - N/A   Clear
10:53 PM 82.9 °F 81.9 °F 54.0 °F 37% 29.82 in 10.0 mi SSW 5.8 mph - N/A   Clear
11:53 PM 81.0 °F - 51.1 °F 35% 29.83 in 10.0 mi WSW 4.6 mph - N/A   Clear